星链-32151 (STARLINK-32151)

导读

STARLINK-32151是美国太空探索技术公司SpaceX星链星座的成员卫星,星链项目旨在构建覆盖全球的卫星互联网星座,为全球用户提供高速互联网接入服务。该卫星于2024年7月28日由美国发射升空,目前已进入预定轨道运行,将为星链网络补充通信容量,进一步完善全球卫星互联网的覆盖与服务能力。

基本信息
目录编号:
60299
目录名称:
STARLINK-32151
国际标识:
2024-132X
轨道中心:
EARTH
卫星名称:
星链-32151 (STARLINK-32151)
卫星全名:
星链-32151 (STARLINK-32151)
卫星状态:
在轨 (已飞行776 天)
发射日期:
2024-07-28 UTC
国别 :
美国 (US)
星等 :
--
该卫星已列入 空间交会检测服务 Space Conjunction Data Service (SCDS) ,当前飞行风险评估等级: 无高风险
轨道信息
数据来源 国际轨道数据 AOE轨道数据
星历时间 2026-09-11T08:07:22+0800
1天前
查看轨道信息
2026-09-10T23:00:00+0800
1天前
查看轨道信息
半长轴 6840.887km 6840.881km
偏心率 0.0001193 0.0001104
轨道倾角 53.160° 53.156°
近地点辐角 91.178° 49.209°
升交点赤经 242.213° 243.994°
平近点角 268.936° 10.048°
近地点 461.933km 461.988km
远地点 463.567km 463.5km
周期 93.849分钟 93.849分钟
每日圈数 15.343845 15.343865
详细信息
卫星平台:
Starlink v2.0 mini
运营商:
太空探索技术公司
运营商所在国:
美国
制造商(研发单位):
太空探索技术公司
制造商所在国:
美国
使用方式:
暂无
卫星简介
星链(Starlink)计划是由太空探索技术公司(SpaceX)提出的一个巨型低轨卫星互联网星座项目,计划在2019年至2024年间在太空搭建由约1.2万颗卫星组成的“星链”网络,其中1584颗将部署在地球上空550千米处的近地轨道,并从2020年开始工作。该卫星仍在工作。
2D轨道图
3D轨道图
轨道高度分析图
轨道倾角分析图
轨道综合分析图
查看轨道综合分析图
交会数据列表
事件ID 空间交会对象 最接近时刻(TCA) 交会距离 交会风险概率(CRP) 交会风险指数(CRI) 操作
CDM_260914-051306-029906-600821
2026-09-14T
05:13:30+0000
0.603 km
远距离
8.505977E-5 中风险 0.74
CDM_260913-173006-029906-600821
2026-09-13T
17:30:03+0000
0.897 km
远距离
2.472616E-5 中风险 0.63
CDM_260914-055006-029906-833721
2026-09-14T
05:50:16+0000
1.278 km
极远距离
5.023606E-6 低风险 0.49
CDM_260912-171606-029906-454023
ARCSTONE (64540)
2026-09-12T
17:16:59+0000
1.854 km
极远距离
3.386359E-6 低风险 0.46
CDM_260913-190306-029906-600821
2026-09-13T
19:03:51+0000
1.720 km
极远距离
2.837499E-6 低风险 0.44
CDM_260914-064706-029906-600821
2026-09-14T
06:47:18+0000
2.451 km
极远距离
1.235882E-6 低风险 0.37
CDM_260912-205704-748606-029923
2026-09-12T
20:57:44+0000
2.649 km
极远距离
1.190825E-6 低风险 0.37
CDM_260906-055105-959006-029921
2026-09-06T
05:51:05+0000
2.495 km
极远距离
1.09781E-6 低风险 0.36
CDM_260913-211204-177206-029921
2026-09-13T
21:12:14+0000
2.968 km
极远距离
1.039486E-6 低风险 0.35
与全量物体交会距离演化趋势
与全量物体交会风险概率演化趋势